Poughkeepsie, NY

5:11 PM EDT on July 26, 2017 (GMT -0400)
Dutchess County

Weather History for KPOU - January, 2015

Change the Weather History Date:

Tuesday, January 20, 2015

  Actual Average Record
Temperature  
Mean Temperature 30 °F 25 °F  
Max Temperature 36 °F 35 °F 56 °F (1951)
Min Temperature 23 °F 15 °F -13 °F (1971)
Degree Days  
Heating Degree Days 35 40  
Month to date heating degree days 790 792  
Since 1 July heating degree days 2841 3121  
Cooling Degree Days 0 0  
Month to date cooling degree days 0 0  
Year to date cooling degree days 0 0  
Moisture  
Dew Point 16 °F    
Average Humidity 53    
Maximum Humidity 58    
Minimum Humidity 47    
Precipitation  
Precipitation 0.00 in 0.09 in 0.98 in (1978)
Month to date precipitation 2.41 2.01  
Year to date precipitation 2.41 2.01  
Sea Level Pressure  
Sea Level Pressure 29.92 in    
Wind  
Wind Speed 8 mph (WNW)    
Max Wind Speed 17 mph    
Max Gust Speed 23 mph    
Visibility 10 miles    
Events      
T = Trace of Precipitation, MM = Missing Value Source: NWS Daily Summary

Daily Weather History Graph

Daily Weather History Graph

Search for Another Location

Airport or City:

Trip Planner

Search our weather history database for the weather conditions in past years. The results will help you decide how hot, cold, wet, or windy it might be!

Date:

Astronomy

Jan. 20, 2015 Rise Set
Actual Time 7:17 AM EST 4:55 PM EST
Civil Twilight 6:47 AM EST 5:26 PM EST
Nautical Twilight 6:13 AM EST 6:00 PM EST
Astronomical Twilight 5:40 AM EST 6:33 PM EST
Moon 6:57 AM EST (1/20) 5:31 PM EST (1/20)
Length of Visible Light 10h 39m
Length of Day
9h 38m
New Moon, 0% of the Moon is Illuminated
Jan 20
New Moon
Jan 26
First Quarter
Feb 3
Full
Feb 11
Last Quarter
Feb 18
New

Hourly Weather History & Observations

Time (EST) Temp. Windchill Dew Point Humidity Pressure Visibility Wind Dir Wind Speed Gust Speed Precip Events Conditions
12:53 AM 34.0 °F 26.6 °F 19.0 °F 54% 29.86 in 10.0 mi WNW 9.2 mph 17.3 mph N/A   Overcast
1:53 AM 33.1 °F 23.9 °F 19.0 °F 56% 29.85 in 10.0 mi West 12.7 mph 23.0 mph N/A   Overcast
2:53 AM 33.1 °F 24.4 °F 19.0 °F 56% 29.86 in 10.0 mi West 11.5 mph - N/A   Overcast
3:53 AM 32.0 °F 24.8 °F 18.0 °F 56% 29.86 in 10.0 mi WNW 8.1 mph - N/A   Overcast
4:53 AM 30.9 °F 22.2 °F 17.1 °F 57% 29.86 in 10.0 mi West 10.4 mph - N/A   Mostly Cloudy
5:53 AM 30.9 °F 21.2 °F 16.0 °F 54% 29.88 in 10.0 mi West 12.7 mph - N/A   Overcast
6:53 AM 30.0 °F 21.7 °F 15.1 °F 54% 29.89 in 10.0 mi WNW 9.2 mph - N/A   Partly Cloudy
7:53 AM 30.0 °F 25.2 °F 16.0 °F 56% 29.90 in 10.0 mi West 4.6 mph - N/A   Clear
8:53 AM 30.9 °F 22.8 °F 16.0 °F 54% 29.92 in 10.0 mi West 9.2 mph - N/A   Clear
9:53 AM 33.1 °F 24.4 °F 17.1 °F 52% 29.92 in 10.0 mi West 11.5 mph - N/A   Clear
10:53 AM 34.0 °F 28.0 °F 17.1 °F 50% 29.91 in 10.0 mi WNW 6.9 mph - N/A   Clear
11:53 AM 33.1 °F 26.1 °F 17.1 °F 52% 29.91 in 10.0 mi West 8.1 mph - N/A   Clear
12:53 PM 33.1 °F 28.7 °F 16.0 °F 50% 29.88 in 10.0 mi Variable 4.6 mph - N/A   Clear
1:53 PM 34.0 °F 28.8 °F 18.0 °F 52% 29.88 in 10.0 mi West 5.8 mph - N/A   Clear
2:53 PM 35.1 °F 30.1 °F 17.1 °F 48% 29.90 in 10.0 mi WSW 5.8 mph - N/A   Clear
3:53 PM 35.1 °F 28.6 °F 17.1 °F 48% 29.92 in 10.0 mi SW 8.1 mph - N/A   Clear
4:53 PM 34.0 °F - 17.1 °F 50% 29.92 in 10.0 mi Calm Calm - N/A   Clear
5:53 PM 33.1 °F 27.7 °F 18.0 °F 54% 29.94 in 10.0 mi WSW 5.8 mph - N/A   Clear
6:53 PM 32.0 °F 27.5 °F 18.0 °F 56% 29.96 in 10.0 mi West 4.6 mph - N/A   Clear
7:53 PM 30.0 °F 24.1 °F 18.0 °F 61% 29.99 in 10.0 mi NNW 5.8 mph - N/A   Clear
8:53 PM 28.0 °F 20.0 °F 12.9 °F 53% 30.00 in 10.0 mi North 8.1 mph - N/A   Clear
9:53 PM 27.0 °F 19.5 °F 10.9 °F 51% 30.02 in 10.0 mi NNE 6.9 mph - N/A   Clear
10:53 PM 24.1 °F 17.0 °F 10.9 °F 57% 30.06 in 10.0 mi NE 5.8 mph - N/A   Clear
11:53 PM 23.0 °F 15.8 °F 10.0 °F 58% 30.06 in 10.0 mi NNE 5.8 mph - N/A   Clear